Вернуться в каталог

STARLINK-32510

АктивенСвязьVLEO
NORAD 62040·PAYLOAD·🇺🇸 United States

Запущен Nov 21, 2024 с Cape Canaveral Space Force Station

Loading…

Ближайшие Пролёты (ближайшие 24 часа)

TLE

СвежийSource: CelesTrak SupGP

Эпоха: Sep 14, 2026, 22:04 UTC

1 62040C 24216J   26257.91993056  .00023266  00000+0  84275-3 0  2575
2 62040  42.9997 275.1809 0001441 265.3352 281.7936 15.27564198    17

Отслеживайте STARLINK-32510 в реальном времени с AllMySat

Download on the App Store